TimeCST,TemperatureF,Dew PointF,Humidity,Sea Level PressureIn,VisibilityMPH,Wind Direction,Wind SpeedMPH,Gust SpeedMPH,PrecipitationIn,Events,Conditions,WindDirDegrees,DateUTC
12:53 AM,42.1,26.1,53,30.07,10.0,South,13.8,21.9,N/A,,Clear,180,2014-01-01 06:53:00
1:53 AM,41.0,26.1,55,30.05,10.0,South,12.7,-,N/A,,Clear,180,2014-01-01 07:53:00
2:53 AM,39.9,26.1,58,30.02,10.0,South,13.8,-,N/A,,Clear,180,2014-01-01 08:53:00
3:53 AM,39.9,26.1,58,29.99,10.0,South,11.5,19.6,N/A,,Clear,180,2014-01-01 09:53:00
4:53 AM,39.0,26.1,60,29.96,10.0,South,12.7,20.7,N/A,,Clear,170,2014-01-01 10:53:00
5:53 AM,39.0,27.0,62,29.94,10.0,South,11.5,-,N/A,,Clear,170,2014-01-01 11:53:00
6:53 AM,37.0,27.0,67,29.94,10.0,North,-9999.0,-,N/A,,Clear,0,2014-01-01 12:53:00
7:53 AM,37.0,27.0,67,29.93,10.0,South,8.1,-,N/A,,Clear,170,2014-01-01 13:53:00
8:53 AM,39.9,28.0,63,29.95,10.0,South,8.1,-,N/A,,Clear,170,2014-01-01 14:53:00
9:53 AM,44.1,30.0,58,29.95,10.0,SSW,8.1,-,N/A,,Clear,210,2014-01-01 15:53:00
10:53 AM,46.0,30.0,54,29.94,10.0,SSW,10.4,-,N/A,,Clear,200,2014-01-01 16:53:00
11:53 AM,48.0,30.9,52,29.94,10.0,WSW,6.9,-,N/A,,Clear,240,2014-01-01 17:53:00
12:53 PM,48.9,30.9,50,29.90,10.0,Variable,4.6,-,N/A,,Clear,0,2014-01-01 18:53:00
1:53 PM,50.0,30.9,48,29.91,10.0,NW,8.1,-,N/A,,Clear,320,2014-01-01 19:53:00
2:53 PM,48.0,30.9,52,29.95,10.0,NW,8.1,16.1,N/A,,Partly Cloudy,320,2014-01-01 20:53:00
3:53 PM,39.0,27.0,62,30.02,7.0,NNW,12.7,21.9,N/A,,Partly Cloudy,340,2014-01-01 21:53:00
4:53 PM,32.0,23.0,69,30.11,6.0,NNW,13.8,26.5,N/A,,Haze,330,2014-01-01 22:53:00
5:53 PM,28.9,19.9,69,30.15,7.0,North,11.5,26.5,0.00,,Overcast,350,2014-01-01 23:53:00
6:50 PM,26.6,17.6,69,30.19,7.0,NNW,12.7,28.8,N/A,,Overcast,340,2014-01-02 00:50:00
6:53 PM,27.0,17.1,66,30.22,6.0,NNW,10.4,28.8,N/A,,Haze,340,2014-01-02 00:53:00
7:53 PM,25.0,15.1,66,30.27,7.0,North,11.5,27.6,N/A,,Overcast,350,2014-01-02 01:53:00
8:32 PM,24.8,15.8,69,30.26,8.0,North,12.7,31.1,N/A,,Overcast,360,2014-01-02 02:32:00
8:39 PM,24.8,15.8,69,30.26,8.0,NNW,12.7,23.0,N/A,,Overcast,340,2014-01-02 02:39:00
8:53 PM,24.1,15.1,69,30.30,8.0,NNW,9.2,23.0,N/A,,Overcast,340,2014-01-02 02:53:00
9:53 PM,21.0,12.0,68,30.33,8.0,North,15.0,29.9,N/A,,Overcast,360,2014-01-02 03:53:00
10:53 PM,19.9,12.0,71,30.35,7.0,North,13.8,26.5,N/A,,Mostly Cloudy,350,2014-01-02 04:53:00
11:09 PM,19.4,12.2,74,30.31,8.0,North,11.5,20.7,N/A,,Scattered Clouds,350,2014-01-02 05:09:00
11:53 PM,19.0,12.9,77,30.36,9.0,North,10.4,19.6,N/A,,Clear,350,2014-01-02 05:53:00